INTELSAT 33E DEB, 64396

Orbit data source: Space-Track

INTELSAT 33E DEB, 64396 is space debris in GEO originally from a launch on Wed, 24 Aug 2016 UTC launched from the French Guiana (FRGUI). Debris objects in space refer to the collection of defunct objects orbiting the Earth. Examples of debris include non-operational satellites, rocket bodies, and fragments generated from explosions, collisions, or faulty payload assembly.

Loading next visibility...
Identifier
64396, 2016-053AA
Orbit
GEO
Country
Flag of USUS / ITSO
Related business
Manufacturer
Boeing/ES
Mission
Spacecraft
Bus & Motor
Unknown
Mass
Unknown
Launch date (UTC)
2016-08-24 (10 years ago)
Launch vehicle
Unknown
Launch site
French Guiana (FRGUI)
Object type
Payload
Rocket body
Debris
Shape & HBR
Unknown shape, 1.1 m
Radar Cross Section
RCS unknown

Expand to show TLE details & history
Last TLE update: 20 hours ago

TLE from 20 hours ago
0 INTELSAT 33E DEB
1 64396U 16053AA  26120.71988721 -.00000305  00000-0  00000-0 0  9996
2 64396   1.4554  82.9251 0116553  57.0535 304.1542  0.98616138  5514
Epoch: 2026-04-30T17:16Z
TLE epoch observation values (Epoch: 2026-04-30T17:16:38.254Z)
Latitude
-0.00001°
Longitude
-34.80164°
Altitude
35,984.088 km
Speed
3.077 km/s
True Right ascension
05h 32m 04s
True Declination
0° 00' 00"
Sunlit
Object was in daylight at epoch
Visualization orbit readout
Latitude
Unknown
Longitude
Unknown
Altitude
Unknown
Speed
Unknown
Apparent Right ascension
Unknown
Apparent Declination
Unknown
Sunlit
N/A
Visualization observer readout
Local Sidereal Time
20:32:55
Azimuth
Unknown
Elevation
Unknown
Doppler factor
Unknown
Orbital elements
Apogee altitude
36,755.213 km
Perigee altitude
35,761.333 km
Semi-major axis
42,636.41 km
Eccentricity
0.01166
Inclination
1.4554°
RAAN
82.9251°
Arg. of periapsis
57.0535°
True anomaly
303.03991°
Mean anomaly
304.1542°
Eccentric anomaly
303.59796°
Mean motion
0.24653 °/min
Orbital period
1,460.26 mins
BSTAR
0
Loading maneuver chart data...
Computing Atmospheric mass density...
Loading historical data...
Loading historical data...
Loading historical data...
Loading historical data...
Loading historical data...
Loading historical data...
Loading historical data...

Documentation

Showing up to 5 results
|